This is the latest recevied weather packets stored in our database for station/object W2BP-13. If no packets are shown the sender has not sent any weather packets the latest 10 day(s).
| Time | Temp. | Humidity | Pressure | Rain* | Wind** | Luminosity | Snow |
|---|---|---|---|---|---|---|---|
| 1778131532 | 17.78° C | 54% | 1018 hPa | 0 mm | - | - | - |
| 1778130633 | 17.78° C | 53% | 1017.9 hPa | 0 mm | - | - | - |
| 1778129733 | 17.78° C | 52% | 1017.9 hPa | 0 mm | - | - | - |
| 1778128833 | 18.33° C | 52% | 1017.7 hPa | 0 mm | - | - | - |
| 1778127933 | 18.33° C | 51% | 1017.5 hPa | 0 mm | - | - | - |
| 1778127033 | 18.33° C | 51% | 1017.6 hPa | 0 mm | - | - | - |
| 1778126132 | 18.89° C | 49% | 1017.4 hPa | 0 mm | - | - | - |
| 1778125233 | 20° C | 47% | 1017 hPa | 0 mm | - | - | - |
| 1778124333 | 20.56° C | 47% | 1016.6 hPa | 0 mm | - | - | - |
| 1778123433 | 20.56° C | 46% | 1016.5 hPa | 0 mm | - | - | - |
| 1778122532 | 21.11° C | 46% | 1016.6 hPa | 0 mm | - | - | - |
| 1778121633 | 22.22° C | 45% | 1016.2 hPa | 0 mm | - | - | - |
| 1778120732 | 22.22° C | 44% | 1016.1 hPa | 0 mm | - | - | - |
| 1778119833 | 22.78° C | 44% | 1016.1 hPa | 0 mm | - | - | - |
| 1778118932 | 23.33° C | 43% | 1016.1 hPa | 0 mm | - | - | - |
| 1778118032 | 23.89° C | 42% | 1015.8 hPa | 0 mm | - | - | - |
| 1778117133 | 23.89° C | 41% | 1015.5 hPa | 0 mm | - | - | - |
| 1778116233 | 24.44° C | 40% | 1015.6 hPa | 0 mm | - | - | - |
| 1778115333 | 25° C | 38% | 1015.6 hPa | 0 mm | - | - | - |
| 1778114433 | 25° C | 37% | 1015.5 hPa | 0 mm | - | - | - |
| 1778113533 | 25.56° C | 37% | 1015.5 hPa | 0 mm | - | - | - |
| 1778112633 | 26.11° C | 37% | 1015.6 hPa | 0 mm | - | - | - |
| 1778111733 | 26.67° C | 36% | 1015.7 hPa | 0 mm | - | - | - |
| 1778110832 | 27.78° C | 35% | 1015.9 hPa | 0 mm | - | - | - |
| 1778109932 | 28.33° C | 35% | 1015.7 hPa | 0 mm | - | - | - |
* Rain latest hour (hover to see other rain measurements)
** Current wind speed in m/s (hover to see current wind gust speed)